DateTimeUTC,F1_A11,F1_S11,BsB_S11,BsG_S11,BsR_S11,BbsB_S11,BbsG_S11,BbsR_S11,BaB_A11,BaG_A11,BaR_A11,Tu_S11,T_S11,Uu_S11,U_S11,P_S11,T1_A11
2021-03-12T02:00:00Z,00000200,21000000,,,,,,,0000.39,-000.03,-000.08,16.6,24.4,,00.0,0637.4,30.9
2021-03-12T02:01:00Z,00000200,21000000,,,,,,,0000.08,0000.21,0000.39,16.6,24.4,,00.0,0637.4,30.9
2021-03-12T02:02:00Z,00000200,21000000,,,,,,,0000.25,-000.13,-000.36,16.6,24.4,,00.0,0637.4,30.9
2021-03-12T02:03:00Z,00000200,61000000,,,,,,,0000.67,0001.10,0001.10,16.7,24.4,,00.0,0637.4,30.9
2021-03-12T02:04:00Z,00000200,41000000,0001.40,0001.04,0000.57,-000.06,0000.14,-000.16,0000.44,-000.12,-000.03,17.0,24.3,,00.0,0638.2,30.9
2021-03-12T02:05:00Z,00000200,01000000,0001.05,0000.96,0000.51,0000.05,-000.08,0000.26,0000.57,0000.97,0000.11,17.0,24.2,,00.0,0638.3,30.9
2021-03-12T02:06:00Z,00000200,01000000,0001.44,0000.82,0000.43,0000.81,0000.08,0000.06,0000.49,0000.27,0000.73,17.0,24.2,,00.0,0638.3,30.9
2021-03-12T02:07:00Z,00000200,01000000,0001.67,0000.78,0000.60,-000.39,0000.03,-000.10,0000.18,0000.21,0000.03,16.9,24.2,,00.0,0638.2,30.9
2021-03-12T02:08:00Z,00000200,01000000,0001.97,0001.09,0000.67,0000.18,0000.19,0000.17,0000.55,0000.59,0000.24,16.9,24.1,,00.0,0638.2,30.9
2021-03-12T02:09:00Z,00000200,01000000,0002.03,0000.94,0000.42,-000.19,0000.07,0000.03,0000.29,0000.04,0000.29,16.8,24.1,,00.0,0638.3,30.9
2021-03-12T02:10:00Z,00000200,01000000,0001.28,0000.85,0000.35,-000.08,0000.18,-000.06,0000.24,0000.58,0000.31,16.8,24.1,,00.0,0638.2,30.9
2021-03-12T02:11:00Z,00000200,01000000,0002.01,0000.87,0000.41,-000.19,0000.11,0000.10,0000.59,-000.03,-000.07,16.8,24.0,,00.0,0638.2,30.9
2021-03-12T02:12:00Z,00000200,01000000,0001.30,0000.96,0000.74,0000.04,0000.11,0000.07,0000.29,0000.42,0000.52,16.7,24.0,,00.0,0638.3,30.8
2021-03-12T02:13:00Z,00000200,01000000,0001.27,0000.76,0000.80,-000.38,0000.02,0000.13,0000.86,0000.54,0000.42,16.7,24.0,,00.0,0638.2,30.8
2021-03-12T02:14:00Z,00000200,01000000,0001.83,0000.87,0000.64,-000.04,0000.12,0000.05,0000.48,0000.59,0000.47,16.8,24.0,,00.0,0638.2,30.9
2021-03-12T02:15:00Z,00000200,01000000,0001.41,0000.90,0000.51,0000.22,0000.10,0000.22,0000.68,0000.87,0000.48,16.8,24.0,,00.0,0638.2,30.9
2021-03-12T02:16:00Z,00000200,01000000,0001.52,0000.82,0000.57,-000.15,0000.30,0000.22,0000.71,0000.10,0000.56,16.9,24.0,,00.0,0638.2,30.9
2021-03-12T02:17:00Z,00000200,01000000,0000.93,0000.96,0000.62,-000.09,0000.17,-000.07,0000.21,0000.69,0000.29,17.0,24.1,,00.0,0638.2,30.9
2021-03-12T02:18:00Z,00000200,01000000,0001.51,0000.95,0000.55,0000.16,0000.11,0000.15,0000.42,0000.81,0000.10,17.1,24.1,,00.0,0638.2,30.9
2021-03-12T02:19:00Z,00000200,01000000,0001.17,0000.70,0000.74,0000.41,0000.04,0000.08,0000.64,0000.20,0000.75,17.1,24.1,,00.0,0638.2,30.9
2021-03-12T02:20:00Z,00000200,01000000,0001.53,0000.96,0000.53,-000.61,0000.16,0000.23,0000.40,0000.45,-000.18,17.2,24.1,,00.0,0638.2,30.9
2021-03-12T02:21:00Z,00000200,01000000,0001.52,0001.04,0000.79,0000.53,0000.11,0000.18,0000.56,0000.26,0000.55,17.2,24.1,,00.0,0638.2,30.9
2021-03-12T02:22:00Z,00000200,01000000,0001.17,0001.11,0000.54,-000.19,0000.07,-000.06,0000.14,0000.50,0000.13,17.1,24.1,,00.0,0638.2,30.9
2021-03-12T02:23:00Z,00000200,01000000,0001.52,0001.22,0000.64,-000.07,0000.10,0000.25,0001.09,0000.47,0000.48,17.1,24.1,,00.0,0638.2,30.9
2021-03-12T02:24:00Z,00000200,01000000,0001.36,0000.87,0000.60,-000.14,0000.07,0000.09,0000.35,0000.26,0000.05,17.0,24.1,,00.0,0638.2,30.9
2021-03-12T02:25:00Z,00000200,01000000,0002.56,0000.96,0000.46,-000.23,0000.03,0000.13,0000.42,0000.65,0000.28,16.9,24.1,,00.0,0638.2,30.9
2021-03-12T02:26:00Z,00000200,01000000,0001.63,0000.87,0000.57,0000.02,0000.09,0000.26,0000.30,0000.39,0000.53,16.9,24.0,,00.0,0638.2,30.9
2021-03-12T02:27:00Z,00000200,01000000,0001.79,0000.71,0000.42,0000.09,0000.07,0000.25,0000.42,0000.22,0000.60,16.9,24.0,,00.0,0638.2,30.9
2021-03-12T02:28:00Z,00000200,01000000,0001.28,0001.02,0000.44,-000.08,-000.07,-000.06,0000.66,0000.67,0000.23,16.9,24.0,,00.0,0638.2,30.9
2021-03-12T02:29:00Z,00000200,01000000,0001.39,0001.12,0000.67,0000.15,0000.16,0000.08,0000.32,0000.74,0000.56,16.9,24.0,,00.0,0638.2,30.9
2021-03-12T02:30:00Z,00000200,01000000,0001.03,0001.00,0000.43,-000.25,0000.23,0000.12,0000.66,0000.35,-000.18,17.0,24.0,,00.0,0638.2,30.9
2021-03-12T02:31:00Z,00000200,01000000,0001.76,0000.95,0000.81,-000.13,-000.03,0000.26,0000.30,0000.40,0000.43,17.1,24.1,,00.0,0638.2,30.9
2021-03-12T02:32:00Z,00000200,01000000,0001.37,0000.90,0000.49,-000.20,0000.16,0000.14,0000.35,0000.34,0000.55,17.2,24.1,,00.0,0638.1,31.0
2021-03-12T02:33:00Z,00000200,01000000,0001.89,0001.11,0000.57,-000.47,0000.26,0000.07,0000.87,0000.55,0000.32,17.2,24.1,,00.0,0638.1,30.9
2021-03-12T02:34:00Z,00000200,01000000,0001.89,0001.00,0000.43,-000.19,-000.08,0000.33,0000.13,0000.35,0000.07,17.2,24.1,,00.0,0638.1,30.9
2021-03-12T02:35:00Z,00000200,01000000,0001.02,0000.76,0000.38,0000.05,-000.10,0000.02,0000.31,0000.10,0000.15,17.2,24.1,,00.0,0638.1,30.9
2021-03-12T02:36:00Z,00000200,01000000,0001.40,0000.90,0000.72,0000.23,0000.22,0000.28,0000.66,0000.29,0000.39,17.1,24.1,,00.0,0638.1,30.9
2021-03-12T02:37:00Z,00000200,01000000,0001.98,0000.66,0000.45,-000.04,0000.02,0000.22,0000.06,-000.06,0000.45,17.1,24.1,,00.0,0638.1,30.9
2021-03-12T02:38:00Z,00000200,01000000,0001.36,0000.88,0000.42,0000.06,0000.16,0000.21,0000.56,0000.54,0000.31,17.0,24.1,,00.0,0638.0,30.9
2021-03-12T02:39:00Z,00000200,01000000,0001.73,0000.82,0000.44,0000.17,0000.00,0000.26,0000.08,0000.23,0000.03,17.0,24.1,,00.0,0638.1,30.9
2021-03-12T02:40:00Z,00000200,01000000,0001.88,0001.00,0000.62,0000.24,0000.27,0000.24,0000.73,0000.29,0000.36,16.9,24.0,,00.0,0638.1,30.9
2021-03-12T02:41:00Z,00000200,01000000,0001.72,0001.05,0000.78,-000.06,0000.08,0000.32,0000.04,0000.38,0000.11,16.9,24.0,,00.0,0638.1,30.9
2021-03-12T02:42:00Z,00000200,01000000,0001.63,0000.81,0000.58,0000.29,0000.11,-000.02,0000.60,0000.25,0000.28,16.8,24.0,,00.0,0638.1,30.9
2021-03-12T02:43:00Z,00000200,01000000,0001.76,0001.29,0000.48,-000.58,0000.18,0000.27,0000.42,0001.01,0000.48,16.9,24.0,,00.0,0638.1,30.9
2021-03-12T02:44:00Z,00000200,01000000,0002.05,0001.28,0000.52,-000.15,0000.05,0000.14,0000.81,0000.57,0000.30,16.9,24.0,,00.0,0638.1,30.9
2021-03-12T02:45:00Z,00000200,01000000,0001.97,0001.06,0000.53,-000.08,0000.13,0000.05,0000.24,0000.17,0000.21,17.0,24.0,,00.0,0638.1,30.9
2021-03-12T02:46:00Z,00000200,01000000,0000.86,0000.80,0000.72,0000.09,0000.18,0000.32,0000.72,0000.54,0000.44,17.1,24.0,,00.0,0638.0,30.9
2021-03-12T02:47:00Z,00000200,01000000,0001.89,0000.71,0000.21,0000.32,0000.24,-000.01,0000.31,0000.19,0000.32,17.1,24.1,,00.0,0638.0,30.9
2021-03-12T02:48:00Z,00000200,01000000,0001.38,0000.60,0000.55,0000.18,-000.03,0000.09,0000.33,0000.16,0000.01,17.2,24.1,,00.0,0638.1,30.9
2021-03-12T02:49:00Z,00000200,01000000,0001.59,0000.88,0000.56,-000.24,-000.03,0000.00,0000.47,0000.41,0000.40,17.3,24.2,,00.0,0638.1,30.9
2021-03-12T02:50:00Z,00000200,01000000,0001.69,0000.62,0000.42,0000.51,0000.15,0000.05,-000.08,0000.56,0000.30,17.3,24.2,,00.0,0638.1,31.0
2021-03-12T02:51:00Z,00000200,01000000,0001.12,0000.88,0000.27,-000.10,0000.26,0000.00,0000.79,0000.41,0000.63,17.4,24.2,,00.0,0638.1,31.0
2021-03-12T02:52:00Z,00000200,01000000,0001.65,0001.03,0000.44,0000.14,-000.03,0000.24,0000.12,0000.75,0000.00,17.5,24.3,,00.0,0638.1,31.0
2021-03-12T02:53:00Z,00000200,01000000,0001.58,0000.53,0000.60,0000.05,-000.02,0000.19,0000.08,-000.44,0000.33,17.5,24.3,,00.0,0638.1,31.0
2021-03-12T02:54:00Z,00000200,01000000,0001.80,0000.83,0000.33,-000.08,0000.14,-000.13,0000.67,0000.46,0000.15,17.5,24.3,,00.0,0638.0,31.0
2021-03-12T02:55:00Z,00000200,01000000,0001.98,0001.22,0000.58,-000.08,0000.08,0000.06,0000.31,0000.26,0000.19,17.5,24.3,,00.0,0638.1,31.0
2021-03-12T02:56:00Z,00000200,01000000,0001.57,0001.13,0000.61,-000.02,0000.01,0000.22,0000.42,0000.38,-000.12,17.4,24.3,,00.0,0638.1,31.0
2021-03-12T02:57:00Z,00000200,41000000,,,,,,,0000.55,0000.45,0000.62,17.5,24.3,,00.0,0638.1,30.9
2021-03-12T02:58:00Z,00000200,61000000,,,,,,,-000.40,-000.17,0000.13,17.0,24.4,,00.0,0637.2,30.9
2021-03-12T02:59:00Z,00000200,21000000,,,,,,,-000.14,-000.24,-000.36,17.0,24.5,,00.0,0637.2,30.9
